Buffalo, MN

9:10 PM CST on December 05, 2019 (GMT -0600)
Buffalo

Weather History for KCFE - October, 2019

Change the Weather History Date:

Thursday, October 31, 2019

  Actual Average (WUND) Record (WUND)
Temperature  
Mean Temperature 30 °F -  
Max Temperature 35 °F - - (-1)
Min Temperature 24 °F - - (-1)
Degree Days  
Heating Degree Days 36    
Moisture  
Dew Point 17 °F    
Average Humidity 61    
Maximum Humidity 68    
Minimum Humidity 48    
Precipitation  
Precipitation 0.00 in - - ()
Sea Level Pressure  
Sea Level Pressure 30.08 in    
Wind  
Wind Speed - (North)    
Max Wind Speed -    
Max Gust Speed -    
Visibility 10 miles    
Events      
Averages and records for this station are not official NWS values.
T = Trace of Precipitation, MM = Missing Value Source: NWS Daily Summary

Daily Weather History Graph

Daily Weather History Graph

Search for Another Location

Airport or City:

Astronomy

Oct. 31, 2019 Rise Set
Actual Time 7:52 AM CDT 6:04 PM CDT
Civil Twilight 7:21 AM CDT 6:35 PM CDT
Nautical Twilight 6:47 AM CDT 7:10 PM CDT
Astronomical Twilight 6:12 AM CDT 7:44 PM CDT
Moon 11:49 AM CDT (10/31) 8:53 PM CDT (10/31)
Length of Visible Light 11h 13m
Length of Day
10h 12m
Waxing Crescent, 16% of the Moon is Illuminated
Oct 31
Waxing Crescent
Nov 4
First Quarter
Nov 12
Full
Nov 19
Last Quarter
Nov 26
New

Hourly Weather History & Observations

Time (CDT) Temp. Dew Point Humidity Pressure Visibility Wind Dir Wind Speed Gust Speed Precip Events Conditions
12:15 AM 27.5 °F 15.6 °F 61% 30.19 in 10.0 mi North - - N/A   Overcast
12:35 AM 27.3 °F 15.6 °F 61% 30.19 in 10.0 mi North - - N/A   Overcast
12:55 AM 27.1 °F 15.4 °F 61% 30.19 in 10.0 mi North - - N/A   Overcast
1:35 AM 27.1 °F 15.4 °F 61% 30.18 in 10.0 mi North - - N/A   Overcast
1:36 AM 27.1 °F 15.4 °F 61% 30.18 in 10.0 mi North - - N/A   Overcast
1:55 AM 26.8 °F 15.4 °F 62% 30.18 in 10.0 mi North - - N/A   Overcast
2:15 AM 26.6 °F 15.4 °F 63% 30.17 in 10.0 mi North - - N/A   Overcast
2:35 AM 26.4 °F 15.4 °F 63% 30.16 in 10.0 mi North - - N/A   Overcast
2:55 AM 26.4 °F 15.6 °F 64% 30.16 in 10.0 mi North - - N/A   Overcast
3:15 AM 26.2 °F 15.6 °F 64% 30.16 in 10.0 mi North - - N/A   Overcast
3:35 AM 26.1 °F 15.4 °F 64% 30.16 in 10.0 mi North - - N/A   Overcast
3:55 AM 25.7 °F 15.6 °F 66% 30.15 in 10.0 mi North - - N/A   Overcast
4:15 AM 25.7 °F 15.6 °F 66% 30.15 in 10.0 mi North - - N/A   Overcast
4:35 AM 25.7 °F 15.6 °F 66% 30.15 in 10.0 mi North - - N/A   Overcast
4:55 AM 25.3 °F 15.3 °F 66% 30.15 in 10.0 mi North - - N/A   Overcast
5:15 AM 25.3 °F 14.9 °F 65% 30.15 in 10.0 mi North - - N/A   Overcast
5:35 AM 25.2 °F 15.3 °F 66% 30.15 in 10.0 mi North - - N/A   Overcast
5:55 AM 24.8 °F 14.9 °F 66% 30.14 in 10.0 mi North - - N/A   Overcast
6:15 AM 24.8 °F 14.9 °F 66% 30.14 in 10.0 mi North - - N/A   Overcast
6:35 AM 24.8 °F 15.4 °F 68% 30.14 in 10.0 mi North - - N/A   Overcast
6:55 AM 24.8 °F 15.3 °F 67% 30.14 in 10.0 mi North - - N/A   Overcast
7:15 AM 24.8 °F 15.1 °F 67% 30.14 in 10.0 mi North - - N/A   Overcast
7:35 AM 24.6 °F 14.9 °F 67% 30.14 in 10.0 mi North - - N/A   Overcast
7:55 AM 24.6 °F 14.9 °F 67% 30.14 in 10.0 mi North - - N/A   Overcast
7:56 AM 24.4 °F 14.9 °F 67% 30.14 in 10.0 mi North - - N/A   Overcast
8:15 AM 24.4 °F 14.9 °F 67% 30.14 in 10.0 mi North - - N/A   Overcast
8:35 AM 24.4 °F 14.9 °F 67% 30.14 in 10.0 mi North - - N/A   Overcast
8:55 AM 24.6 °F 15.1 °F 67% 30.14 in 10.0 mi North - - N/A   Overcast
9:15 AM 24.8 °F 15.3 °F 67% 30.13 in 10.0 mi North - - N/A   Overcast
9:16 AM 24.8 °F 15.1 °F 67% 30.13 in 10.0 mi North - - N/A   Overcast
9:35 AM 25.2 °F 15.3 °F 66% 30.13 in 10.0 mi North - - N/A   Overcast
9:36 AM 25.2 °F 15.4 °F 67% 30.13 in 10.0 mi North - - N/A   Overcast
9:55 AM 25.3 °F 15.6 °F 67% 30.13 in 10.0 mi North - - N/A   Overcast
9:56 AM 25.5 °F 15.8 °F 67% 30.13 in 10.0 mi North - - N/A   Overcast
10:15 AM 25.5 °F 15.4 °F 66% 30.13 in 10.0 mi North - - N/A   Overcast
10:35 AM 26.4 °F 15.6 °F 64% 30.12 in 10.0 mi North - - N/A   Mostly Cloudy
10:36 AM 26.2 °F 15.6 °F 64% 30.13 in 10.0 mi North - - N/A   Mostly Cloudy
10:55 AM 27.0 °F 15.8 °F 63% 30.12 in 10.0 mi North - - N/A   Scattered Clouds
11:15 AM 27.0 °F 15.6 °F 62% 30.11 in 10.0 mi North - - N/A   Scattered Clouds
11:35 AM 28.6 °F 16.2 °F 60% 30.11 in 10.0 mi North - - N/A   Scattered Clouds
11:55 AM 28.8 °F 15.8 °F 58% 30.11 in 10.0 mi North - - N/A   Clear
12:15 PM 29.8 °F 16.3 °F 57% 30.09 in 10.0 mi North - - N/A   Clear
12:35 PM 30.2 °F 16.5 °F 57% 30.09 in 10.0 mi North - - N/A   Clear
12:55 PM 30.7 °F 16.3 °F 55% 30.08 in 10.0 mi North - - N/A   Clear
1:15 PM 31.8 °F 17.2 °F 55% 30.07 in 10.0 mi North - - N/A   Clear
1:36 PM 32.0 °F 17.2 °F 55% 30.06 in 10.0 mi North - - N/A   Clear
1:55 PM 32.2 °F 17.2 °F 54% 30.05 in 10.0 mi North - - N/A   Clear
2:15 PM 32.4 °F 17.4 °F 54% 30.04 in 10.0 mi North - - N/A   Clear
2:35 PM 32.5 °F 17.8 °F 55% 30.04 in 10.0 mi North - - N/A   Clear
2:36 PM 32.5 °F 18.0 °F 55% 30.04 in 10.0 mi North - - N/A   Clear
2:55 PM 34.2 °F 18.0 °F 52% 30.04 in 10.0 mi North - - N/A   Clear
3:15 PM 34.0 °F 17.8 °F 52% 30.03 in 10.0 mi North - - N/A   Clear
3:36 PM 34.7 °F 18.1 °F 51% 30.03 in 10.0 mi North - - N/A   Clear
3:55 PM 35.1 °F 17.6 °F 49% 30.02 in 10.0 mi North - - N/A   Clear
4:15 PM 35.4 °F 17.8 °F 49% 30.02 in 10.0 mi North - - N/A   Clear
4:36 PM 35.6 °F 17.8 °F 48% 30.02 in 10.0 mi North - - N/A   Clear
4:55 PM 35.6 °F 18.3 °F 50% 30.02 in 10.0 mi North - - N/A   Clear
5:15 PM 34.9 °F 18.5 °F 51% 30.01 in 10.0 mi North - - N/A   Clear
5:16 PM 34.9 °F 18.5 °F 51% 30.01 in 10.0 mi North - - N/A   Clear
5:35 PM 34.7 °F 18.7 °F 52% 30.01 in 10.0 mi North - - N/A   Clear
5:55 PM 33.6 °F 19.4 °F 56% 30.01 in 10.0 mi North - - N/A   Clear
6:15 PM 32.9 °F 19.8 °F 59% 30.01 in 10.0 mi North - - N/A   Clear
6:35 PM 32.9 °F 20.1 °F 59% 30.01 in 10.0 mi North - - N/A   Clear
6:36 PM 32.7 °F 20.1 °F 60% 30.01 in 10.0 mi North - - N/A   Clear
6:55 PM 31.8 °F 20.7 °F 63% 30.01 in 10.0 mi North - - N/A   Clear
7:15 PM 31.8 °F 19.0 °F 59% 30.01 in 10.0 mi North - - N/A   Clear
7:16 PM 31.8 °F 19.0 °F 59% 30.01 in 10.0 mi North - - N/A   Clear
7:35 PM 30.9 °F 18.9 °F 61% 30.01 in 10.0 mi North - - N/A   Clear
7:55 PM 31.1 °F 19.0 °F 61% 30.01 in 10.0 mi North - - N/A   Clear
8:15 PM 30.9 °F 19.0 °F 61% 30.01 in 10.0 mi North - - N/A   Clear
8:16 PM 30.9 °F 19.0 °F 61% 30.01 in 10.0 mi North - - N/A   Clear
8:35 PM 30.7 °F 19.4 °F 63% 30.00 in 10.0 mi North - - N/A   Clear
8:55 PM 31.1 °F 19.4 °F 62% 30.01 in 10.0 mi North - - N/A   Clear
8:56 PM 31.1 °F 19.4 °F 62% 30.01 in 10.0 mi North - - N/A   Clear
9:15 PM 31.1 °F 19.8 °F 63% 30.00 in 10.0 mi North - - N/A   Clear
9:36 PM 31.1 °F 20.1 °F 64% 30.00 in 10.0 mi North - - N/A   Clear
10:15 PM 32.0 °F 20.3 °F 62% 29.99 in 10.0 mi North - - N/A   Mostly Cloudy
10:16 PM 32.0 °F 20.3 °F 62% 29.99 in 10.0 mi North - - N/A   Mostly Cloudy
10:35 PM 32.0 °F 20.3 °F 62% 29.99 in 10.0 mi North - - N/A   Overcast
10:55 PM 32.0 °F 19.9 °F 61% 29.98 in 10.0 mi North - - N/A   Overcast
11:15 PM 32.0 °F 19.6 °F 60% 29.97 in 10.0 mi North - - N/A   Overcast
11:55 PM 32.0 °F 19.4 °F 60% 29.96 in 10.0 mi North - - N/A   Mostly Cloudy
11:56 PM 32.0 °F 19.4 °F 60% 29.96 in 10.0 mi North - - N/A   Mostly Cloudy